Weather History for Glasgow, KY

Change the Weather History Date:

Saturday, February 2, 2013

  Actual Average Record
Temperature  
Mean Temperature 32 °F -  
Max Temperature 41 °F 47 °F 66 °F (1990)
Min Temperature 23 °F 29 °F -9 °F (1965)
Degree Days  
Heating Degree Days 33    
Moisture  
Dew Point 13 °F    
Average Humidity 49    
Maximum Humidity 91    
Minimum Humidity 27    
Precipitation  
Precipitation 0.00 in - - ()
Sea Level Pressure  
Sea Level Pressure 30.16 in    
Wind  
Wind Speed 5 mph (SW)    
Max Wind Speed 17 mph    
Max Gust Speed 23 mph    
Visibility 10 miles    
Events      
Averages and records for this station are not official NWS values.
T = Trace of Precipitation, MM = Missing Value Source: NWS Daily Summary

Daily Weather History Graph

Daily Weather History Graph

Search for Another Location

Airport:

Trip Planner

Search our weather history database for the weather conditions in past years. The results will help you decide how hot, cold, wet, or windy it might be!

Date:

Astronomy

Feb. 02, 2013 Rise Set
Actual Time 6:45 AM CST 5:10 PM CST
Civil Twilight 6:18 AM CST 5:37 PM CST
Nautical Twilight 5:47 AM CST 6:08 PM CST
Astronomical Twilight 5:16 AM CST 6:39 PM CST
Moon No Moon Rise 10:06 AM CST (2/2)
Length of Visible Light 11h 19m
Length of Day
10h 24m
Waning Gibbous, 59% of the Moon is Illuminated
Feb 2
Waning Gibbous
Feb 3
Last Quarter
Feb 10
New
Feb 17
First Quarter
Feb 25
Full

Hourly Weather History & Observations

Time (CST) Temp. Windchill Dew Point Humidity Pressure Visibility Wind Dir Wind Speed Gust Speed Precip Events Conditions
12:15 AM 23.0 °F - 2.1 °F 41% 30.31 in 10.0 mi Calm Calm - N/A   Mostly Cloudy
12:35 AM 23.4 °F - 2.8 °F 41% 30.31 in 10.0 mi Calm Calm - N/A   Overcast
12:55 AM 23.5 °F - 2.3 °F 40% 30.30 in 10.0 mi Calm Calm - N/A   Overcast
1:15 AM 23.9 °F - 2.7 °F 40% 30.30 in 10.0 mi Calm Calm - N/A   Overcast
1:35 AM 23.9 °F - 3.4 °F 41% 30.31 in 10.0 mi Calm Calm - N/A   Overcast
1:55 AM 24.1 °F 19.7 °F 3.9 °F 42% 30.31 in 10.0 mi SSW 3.5 mph - N/A   Overcast
2:15 AM 24.4 °F - 4.3 °F 42% 30.30 in 10.0 mi Calm Calm - N/A   Overcast
2:35 AM 24.6 °F 20.3 °F 4.5 °F 42% 30.29 in 10.0 mi South 3.5 mph - N/A   Mostly Cloudy
2:55 AM 24.8 °F 20.5 °F 4.5 °F 42% 30.29 in 10.0 mi South 3.5 mph - N/A   Mostly Cloudy
3:15 AM 24.8 °F - 4.5 °F 42% 30.29 in 10.0 mi Calm Calm - N/A   Mostly Cloudy
3:35 AM 25.2 °F - 4.8 °F 42% 30.28 in 10.0 mi Calm Calm - N/A   Overcast
3:55 AM 25.3 °F 21.1 °F 5.0 °F 42% 30.27 in 10.0 mi South 3.5 mph - N/A   Overcast
4:15 AM 25.5 °F 21.3 °F 4.8 °F 41% 30.27 in 10.0 mi South 3.5 mph - N/A   Overcast
4:35 AM 25.7 °F 20.1 °F 5.0 °F 41% 30.27 in 10.0 mi South 4.6 mph - N/A   Overcast
4:55 AM 25.7 °F 21.5 °F 4.8 °F 41% 30.26 in 10.0 mi South 3.5 mph - N/A   Overcast
5:15 AM 25.7 °F 20.1 °F 5.0 °F 41% 30.24 in 10.0 mi South 4.6 mph - N/A   Overcast
5:35 AM 26.1 °F - 4.8 °F 40% 30.24 in 10.0 mi Calm Calm - N/A   Overcast
5:55 AM 26.2 °F 20.7 °F 5.2 °F 41% 30.23 in 10.0 mi South 4.6 mph - N/A   Overcast
6:15 AM 26.6 °F 20.0 °F 4.6 °F 39% 30.25 in 10.0 mi SSW 5.8 mph - N/A   Overcast
6:35 AM 26.6 °F 20.0 °F 4.8 °F 40% 30.25 in 10.0 mi South 5.8 mph - N/A   Overcast
6:55 AM 27.0 °F 21.6 °F 4.6 °F 39% 30.24 in 10.0 mi South 4.6 mph - N/A   Overcast
7:15 AM 27.3 °F 22.0 °F 4.1 °F 37% 30.24 in 10.0 mi South 4.6 mph - N/A   Overcast
7:35 AM 27.5 °F 22.2 °F 3.9 °F 37% 30.24 in 10.0 mi South 4.6 mph - N/A   Overcast
7:55 AM 28.0 °F 20.8 °F 2.8 °F 34% 30.23 in 10.0 mi South 6.9 mph - N/A   Overcast
8:15 AM 28.6 °F 21.5 °F 1.9 °F 32% 30.21 in 10.0 mi South 6.9 mph - N/A   Overcast
8:35 AM 29.1 °F 18.9 °F 2.3 °F 32% 30.20 in 10.0 mi South 12.7 mph 19.6 mph N/A   Overcast
8:55 AM 29.1 °F 18.9 °F 8.1 °F 41% 30.19 in 10.0 mi South 12.7 mph 16.1 mph N/A   Overcast
9:15 AM 29.1 °F 20.0 °F 11.7 °F 48% 30.18 in 10.0 mi South 10.4 mph - N/A   Overcast
9:35 AM 29.5 °F 19.3 °F 12.0 °F 48% 30.18 in 10.0 mi SSW 12.7 mph - N/A   Overcast
9:55 AM 30.4 °F 21.5 °F 12.7 °F 48% 30.18 in 10.0 mi SSW 10.4 mph 17.3 mph N/A   Overcast
10:15 AM 31.3 °F 22.1 °F 14.2 °F 49% 30.16 in 10.0 mi SSW 11.5 mph 19.6 mph N/A   Overcast
10:35 AM 32.0 °F 23.6 °F 15.3 °F 50% 30.15 in 10.0 mi SSW 10.4 mph 17.3 mph N/A   Overcast
10:55 AM 32.4 °F 23.0 °F 15.8 °F 51% 30.14 in 10.0 mi SSW 12.7 mph - N/A   Overcast
11:15 AM 34.5 °F 25.7 °F 16.7 °F 48% 30.13 in 10.0 mi SW 12.7 mph 17.3 mph N/A   Overcast
11:35 AM 36.7 °F 28.0 °F 16.3 °F 44% 30.12 in 10.0 mi SW 13.8 mph 19.6 mph N/A   Overcast
11:55 AM 37.0 °F 28.1 °F 14.9 °F 40% 30.10 in 10.0 mi WSW 15.0 mph - N/A   Mostly Cloudy
12:15 PM 37.4 °F 28.5 °F 14.2 °F 39% 30.10 in 10.0 mi WSW 15.0 mph - N/A   Overcast
12:35 PM 38.5 °F 30.3 °F 13.8 °F 37% 30.08 in 10.0 mi WSW 13.8 mph 19.6 mph N/A   Mostly Cloudy
12:55 PM 40.6 °F 32.7 °F 12.7 °F 32% 30.08 in 10.0 mi WSW 15.0 mph 23.0 mph N/A   Scattered Clouds
1:15 PM 41.4 °F 33.3 °F 11.8 °F 30% 30.07 in 10.0 mi WSW 16.1 mph 21.9 mph N/A   Mostly Cloudy
1:35 PM 41.4 °F 33.6 °F 10.4 °F 28% 30.06 in 10.0 mi WSW 15.0 mph 21.9 mph N/A   Overcast
1:55 PM 40.3 °F 32.2 °F 8.8 °F 27% 30.06 in 10.0 mi WSW 15.0 mph 21.9 mph N/A   Overcast
2:15 PM 39.7 °F 30.9 °F 9.1 °F 28% 30.06 in 10.0 mi WSW 17.3 mph 23.0 mph N/A   Overcast
2:35 PM 39.2 °F 32.0 °F 12.0 °F 33% 30.05 in 10.0 mi WSW 11.5 mph - N/A   Overcast
2:55 PM 38.7 °F 31.4 °F 14.2 °F 37% 30.05 in 10.0 mi SW 11.5 mph - N/A   Overcast
3:15 PM 38.5 °F 31.1 °F 13.8 °F 37% 30.05 in 10.0 mi SW 11.5 mph - N/A   Overcast
3:35 PM 37.8 °F 29.8 °F 14.7 °F 39% 30.05 in 10.0 mi WSW 12.7 mph - N/A   Overcast
3:55 PM 37.0 °F 30.4 °F 17.6 °F 45% 30.05 in 10.0 mi SW 9.2 mph - N/A   Overcast
4:15 PM 36.9 °F 30.1 °F 18.3 °F 47% 30.04 in 10.0 mi SW 9.2 mph - N/A   Overcast
4:35 PM 36.7 °F 34.1 °F 18.5 °F 48% 30.04 in 10.0 mi SW 3.5 mph - N/A   Overcast
4:55 PM 36.7 °F 30.5 °F 18.9 °F 49% 30.04 in 10.0 mi WSW 8.1 mph - N/A   Overcast
5:15 PM 36.5 °F 29.7 °F 19.2 °F 50% 30.06 in 10.0 mi SW 9.2 mph - N/A   Overcast
5:35 PM 36.1 °F 28.7 °F 20.1 °F 52% 30.05 in 10.0 mi WSW 10.4 mph - N/A   Overcast
5:55 PM 36.0 °F 29.0 °F 20.1 °F 53% 30.07 in 10.0 mi WSW 9.2 mph - N/A   Overcast
6:15 PM 35.8 °F 29.4 °F 20.5 °F 54% 30.08 in 10.0 mi WSW 8.1 mph - N/A   Overcast
6:35 PM 35.8 °F 28.8 °F 20.8 °F 55% 30.08 in 10.0 mi WSW 9.2 mph - N/A   Overcast
6:55 PM 35.2 °F 28.8 °F 20.8 °F 56% 30.08 in 10.0 mi WSW 8.1 mph - N/A   Overcast
7:15 PM 34.7 °F 28.8 °F 21.0 °F 57% 30.09 in 10.0 mi WSW 6.9 mph - N/A   Overcast
7:35 PM 34.2 °F 27.5 °F 22.1 °F 61% 30.10 in 10.0 mi WSW 8.1 mph - N/A   Mostly Cloudy
7:55 PM 33.3 °F 27.1 °F 27.0 °F 78% 30.11 in 10.0 mi WSW 6.9 mph - N/A   Scattered Clouds
8:15 PM 32.5 °F 27.1 °F 28.0 °F 83% 30.11 in 10.0 mi WSW 5.8 mph - N/A   Scattered Clouds
8:55 PM 32.0 °F 27.5 °F 28.8 °F 88% 30.10 in 10.0 mi WSW 4.6 mph - N/A   Scattered Clouds
9:15 PM 31.8 °F - 28.8 °F 88% 30.10 in 10.0 mi Calm Calm - N/A   Mostly Cloudy
9:35 PM 31.6 °F - 28.8 °F 89% 30.10 in 10.0 mi Calm Calm - N/A   Mostly Cloudy
9:55 PM 30.6 °F 27.1 °F 28.0 °F 90% 30.09 in 10.0 mi SW 3.5 mph - N/A   Mostly Cloudy
10:15 PM 30.0 °F 25.2 °F 27.7 °F 91% 30.10 in 10.0 mi WSW 4.6 mph - N/A   Overcast
10:35 PM 30.4 °F 26.9 °F 27.7 °F 90% 30.09 in 10.0 mi SW 3.5 mph - N/A   Overcast
11:15 PM 32.0 °F 28.7 °F 25.3 °F 76% 30.09 in 10.0 mi WSW 3.5 mph - N/A   Overcast
11:35 PM 32.0 °F - 27.5 °F 83% 30.08 in 10.0 mi Calm Calm - N/A   Overcast
11:55 PM 32.0 °F - 25.0 °F 75% 30.08 in 10.0 mi Calm Calm - N/A   Scattered Clouds